CW0214 Weather Reports


time (UTC)temp
F
wind
direction
speed
knots
gust
knots
rain 1hr
in
rain 24hr
in
rain mn
in
humidity
%
barometer
mb
20260508111405 67 22 6.1 12.2 0.00 0.00 0.00 48 1011.3
20260508110905 68 21 3.5 10.4 0.00 0.00 0.00 47 1011.3
20260508110405 67 100 5.2 8.7 0.00 0.00 0.00 49 1011.3
20260508105905 65 71 2.6 10.4 0.00 0.00 0.00 52 1011.4
20260508104905 65 77 0.9 5.2 0.00 0.00 0.00 52 1011.4
20260508103905 64 40 4.3 11.3 0.00 0.00 0.00 54 1011.5
20260508102405 64 36 4.3 8.7 0.00 0.00 0.00 54 1011.7
20260508101905 63 69 1.7 7.0 0.00 0.00 0.00 57 1011.6
20260508101405 63 11 2.6 13.9 0.00 0.00 0.00 57 1011.6
20260508100905 63 41 6.1 10.4 0.00 0.00 0.00 56 1011.6
20260508100404 63 27 2.6 10.4 0.00 0.00 0.00 60 1011.6
20260508095905 63 31 1.7 8.7 0.00 0.00 0.00 60 1011.6
20260508095404 62 49 0.9 4.3 0.00 0.00 0.00 62 1011.7
20260508094405 61 41 0.9 5.2 0.00 0.00 0.00 67 1011.9
20260508093905 60 12 4.3 7.8 0.00 0.00 0.00 67 1012.0
20260508093405 59 76 3.5 7.8 0.00 0.00 0.00 68 1012.1
20260508092905 59 21 4.3 7.8 0.00 0.00 0.00 68 1012.0
20260508092405 59 51 2.6 8.7 0.00 0.00 0.00 69 1012.0
20260508091904 59 74 4.3 7.0 0.00 0.00 0.00 69 1012.0
20260508091405 58 84 4.3 7.8 0.00 0.00 0.00 69 1012.0
20260508090905 58 44 5.2 10.4 0.00 0.00 0.00 69 1012.0
20260508090405 58 32 3.5 8.7 0.00 0.00 0.00 69 1012.0
20260508085405 58 37 5.2 7.8 0.00 0.00 0.00 70 1011.9
20260508084904 58 40 4.3 7.0 0.00 0.00 0.00 71 1011.8
20260508084405 58 31 1.7 5.2 0.00 0.00 0.00 74 1011.8
20260508083904 58 13 2.6 5.2 0.00 0.00 0.00 75 1011.8
20260508082905 58 13 0.9 5.2 0.00 0.00 0.00 75 1011.6
20260508082405 57 13 1.7 4.3 0.00 0.00 0.00 76 1011.6
20260508081905 57 13 0.9 2.6 0.00 0.00 0.00 77 1011.6
20260508081404 57 13 0.0 1.7 0.00 0.00 0.00 78 1011.5
20260508080905 57 13 0.0 0.0 0.00 0.00 0.00 78 1011.5
20260508080405 57 13 0.0 0.9 0.00 0.00 0.00 78 1011.6
20260508075905 56 13 0.0 2.6 0.00 0.00 0.00 78 1011.5
20260508075405 57 13 0.0 0.0 0.00 0.00 0.00 78 1011.4
20260508074905 56 13 0.0 4.3 0.00 0.00 0.00 78 1011.5
20260508074404 56 13 0.9 2.6 0.00 0.00 0.00 79 1011.4
20260508073904 56 13 0.0 0.0 0.00 0.00 0.00 81 1011.4
20260508073405 55 13 0.0 1.7 0.00 0.00 0.00 80 1011.4
20260508072405 55 302 0.0 0.0 0.00 0.00 0.00 84 1011.2
20260508070905 54 302 0.9 2.6 0.00 0.00 0.00 85 1011.0
20260508070405 54 302 1.7 2.6 0.00 0.00 0.00 85 1011.1
20260508065905 54 302 1.7 2.6 0.00 0.00 0.00 85 1011.1
20260508065405 54 302 0.0 2.6 0.00 0.00 0.00 85 1011.1
20260508064404 54 302 0.0 4.3 0.00 0.00 0.00 85 1011.0
20260508063905 54 313 2.6 5.2 0.00 0.00 0.00 84 1010.9
20260508063405 54 315 2.6 4.3 0.00 0.00 0.00 82 1010.8
20260508062405 55 65 0.0 0.0 0.00 0.00 0.00 81 1010.9
20260508061405 55 65 0.0 0.9 0.00 0.00 0.00 80 1010.9
20260508060905 54 65 0.0 0.0 0.00 0.00 0.00 81 1010.9
20260508060404 54 65 0.0 0.0 0.00 0.00 0.00 81 1010.8
20260508055905 54 65 0.0 0.0 0.00 0.00 0.00 82 1010.8
20260508055405 54 65 0.0 0.0 0.00 0.00 0.00 82 1010.7
20260508054905 54 65 0.9 2.6 0.00 0.00 0.00 82 1010.7
20260508054405 54 65 0.0 0.0 0.00 0.00 0.00 82 1010.6
20260508053907 54 65 0.0 0.0 0.00 0.00 0.00 83 1010.7
20260508053405 54 65 0.0 0.0 0.00 0.00 0.00 83 1010.6
20260508052904 54 65 0.0 0.0 0.00 0.00 0.00 83 1010.4
20260508052405 54 65 0.0 0.9 0.00 0.00 0.00 83 1010.3
20260508051405 54 65 0.0 1.7 0.00 0.00 0.00 83 1010.3
20260508050904 54 65 0.0 1.7 0.00 0.00 0.00 84 1010.2
20260508050405 54 65 0.0 1.7 0.00 0.00 0.00 84 1010.2
20260508045904 54 65 0.0 0.0 0.00 0.00 0.00 84 1010.3
20260508045404 54 65 0.0 0.0 0.00 0.00 0.00 83 1010.3
20260508044904 54 65 0.0 0.0 0.00 0.00 0.00 83 1010.1
20260508044405 54 65 0.0 0.0 0.00 0.00 0.00 83 1010.1
20260508043904 54 65 0.9 4.3 0.00 0.00 0.00 83 1010.1
20260508043404 54 65 0.9 2.6 0.00 0.00 0.00 83 1010.1
20260508042905 54 65 0.9 2.6 0.00 0.00 0.00 83 1010.1
20260508042404 54 65 0.9 4.3 0.00 0.00 0.00 84 1010.1
20260508041904 55 105 1.7 4.3 0.00 0.00 0.00 84 1010.2
20260508041404 55 105 0.9 4.3 0.00 0.00 0.00 84 1010.1
20260508040904 55 105 0.0 0.9 0.00 0.00 0.00 84 1010.0
20260508035404 55 108 0.0 4.3 0.00 0.00 0.00 84 1010.0
20260508034904 55 114 1.7 4.3 0.00 0.00 0.00 84 1009.9
20260508034404 55 87 1.7 4.3 0.00 0.00 0.00 84 1010.0
20260508033905 55 87 0.9 2.6 0.00 0.00 0.00 84 1010.1
20260508033404 55 87 0.9 2.6 0.00 0.00 0.00 83 1010.0
20260508032905 55 87 0.0 0.0 0.00 0.00 0.00 83 1009.9
20260508032405 55 87 0.9 4.3 0.00 0.00 0.00 83 1010.0
20260508031905 55 101 0.9 4.3 0.00 0.00 0.00 83 1010.0
20260508031405 55 101 0.0 2.6 0.00 0.00 0.00 83 1010.0
20260508030905 55 101 0.9 2.6 0.00 0.00 0.00 83 1010.0
20260508030405 55 101 1.7 2.6 0.00 0.00 0.00 83 1010.1
20260508025905 55 101 1.7 2.6 0.00 0.00 0.00 82 1010.1
20260508025404 55 103 0.0 0.9 0.00 0.00 0.00 82 1010.2
20260508024905 55 103 1.7 5.2 0.00 0.00 0.00 82 1010.2
20260508024404 56 112 2.6 4.3 0.00 0.00 0.00 82 1010.2
20260508023904 56 70 1.7 4.3 0.00 0.00 0.00 82 1010.2
20260508023405 56 92 0.9 4.3 0.00 0.00 0.00 82 1010.2
20260508022905 56 92 2.6 7.0 0.00 0.00 0.00 82 1010.2
20260508021404 56 67 1.7 2.6 0.00 0.00 0.00 82 1010.2
20260508020904 56 85 2.6 5.2 0.00 0.00 0.00 81 1010.3
20260508015904 56 86 2.6 6.1 0.00 0.00 0.00 81 1010.4
20260508014904 56 99 0.9 4.3 0.00 0.00 0.00 81 1010.3
20260508014404 56 99 0.0 0.0 0.00 0.00 0.00 81 1010.5
20260508013905 56 99 0.0 0.9 0.00 0.00 0.00 81 1010.6
20260508013404 56 99 0.9 2.6 0.00 0.00 0.00 81 1010.7
20260508012905 56 99 0.0 0.9 0.00 0.00 0.00 81 1010.6
20260508012404 56 99 0.0 4.3 0.00 0.00 0.00 80 1010.5
20260508011404 56 99 0.9 2.6 0.00 0.00 0.00 81 1010.6
20260508010905 56 99 0.0 0.9 0.00 0.00 0.00 80 1010.6
20260508005904 56 99 0.0 0.0 0.00 0.00 0.00 80 1010.6
20260508004905 56 99 0.0 0.0 0.00 0.00 0.00 80 1010.5
20260508003904 56 144 0.0 0.0 0.00 0.00 0.00 80 1010.7
20260508003404 56 144 0.0 0.0 0.00 0.00 0.00 80 1010.8
20260508002405 57 144 0.0 0.0 0.00 0.00 0.00 79 1010.9
20260508001904 57 144 0.0 0.0 0.00 0.00 0.00 79 1011.0
20260508001405 57 144 0.0 0.0 0.00 0.00 0.00 79 1011.0
20260508000904 57 144 0.0 0.0 0.00 0.00 0.00 79 1011.1
20260508000405 57 144 0.0 0.0 0.00 0.00 0.00 79 1011.0
20260507235905 57 144 0.0 0.0 0.00 0.00 0.00 79 1011.1
20260507235404 57 144 0.0 0.0 0.00 0.00 0.00 79 1011.2
20260507234905 57 144 0.9 4.3 0.00 0.00 0.00 79 1011.2
20260507234404 57 167 0.0 0.0 0.00 0.00 0.00 79 1011.2
20260507233904 57 167 0.0 0.0 0.00 0.00 0.00 79 1011.2
20260507233405 57 167 0.0 0.0 0.00 0.00 0.00 78 1011.3
20260507232904 57 167 0.0 0.0 0.00 0.00 0.00 78 1011.2
20260507232404 57 167 0.9 4.3 0.00 0.00 0.00 78 1011.3
20260507231904 57 137 0.9 4.3 0.00 0.00 0.00 78 1011.4
20260507231405 57 119 0.9 4.3 0.00 0.00 0.00 77 1011.4
20260507230904 57 156 0.9 7.8 0.00 0.00 0.00 77 1011.4
20260507230404 57 107 0.0 2.6 0.00 0.00 0.00 77 1011.5
20260507225904 57 107 1.7 5.2 0.00 0.00 0.00 77 1011.4
20260507225404 57 102 0.0 4.3 0.00 0.00 0.00 77 1011.6
20260507224904 57 102 2.6 5.2 0.00 0.00 0.00 77 1011.6
20260507224404 57 118 0.9 7.0 0.00 0.00 0.00 77 1011.6
20260507223904 57 131 0.9 4.3 0.00 0.00 0.00 76 1011.7
20260507222904 57 103 0.0 1.7 0.00 0.00 0.00 76 1011.9
20260507222404 58 106 0.9 4.3 0.00 0.00 0.00 76 1011.9
20260507221906 58 155 0.9 5.2 0.00 0.00 0.00 76 1011.8
20260507221405 58 87 1.7 5.2 0.00 0.00 0.00 75 1011.7
20260507220904 58 133 1.7 4.3 0.00 0.00 0.00 75 1011.7
20260507220404 58 88 0.0 6.1 0.00 0.00 0.00 75 1011.7
20260507215905 58 172 0.9 4.3 0.00 0.00 0.00 75 1011.7
20260507215404 58 139 2.6 6.1 0.00 0.00 0.00 74 1011.7
20260507214904 58 155 1.7 4.3 0.00 0.00 0.00 74 1011.7
20260507214404 58 149 2.6 7.0 0.00 0.00 0.00 74 1011.7
20260507213905 58 126 2.6 7.0 0.00 0.00 0.00 74 1011.7
20260507213404 58 127 0.9 8.7 0.00 0.00 0.00 74 1011.7
20260507212905 58 115 0.9 7.8 0.00 0.00 0.00 74 1011.7
20260507211904 58 44 0.0 2.6 0.00 0.00 0.00 73 1011.8
20260507211404 58 44 0.9 5.2 0.00 0.00 0.00 72 1011.8
20260507210905 58 44 0.0 4.3 0.00 0.00 0.00 72 1011.8
20260507210404 59 44 0.0 5.2 0.00 0.00 0.00 72 1011.8
20260507205905 59 43 0.0 0.0 0.00 0.00 0.00 71 1011.8
20260507205405 59 43 0.9 5.2 0.00 0.00 0.00 71 1011.7
20260507204904 59 83 0.9 6.1 0.00 0.00 0.00 71 1011.6
20260507203904 59 52 0.9 5.2 0.00 0.00 0.00 69 1011.6
20260507203404 59 128 0.0 2.6 0.00 0.00 0.00 69 1011.5
20260507202904 60 152 1.7 6.1 0.00 0.00 0.00 68 1011.4
20260507201904 60 15 0.0 4.3 0.00 0.00 0.00 67 1011.2
20260507201405 60 109 0.0 4.3 0.00 0.00 0.00 67 1011.2
20260507200905 60 62 0.9 5.2 0.00 0.00 0.00 67 1011.1
20260507194904 60 101 0.0 5.2 0.00 0.00 0.00 65 1011.0
20260507193904 61 102 0.9 5.2 0.00 0.00 0.00 65 1010.9
20260507192905 61 49 0.0 7.0 0.00 0.00 0.00 64 1010.9
20260507192405 61 118 2.6 10.4 0.00 0.00 0.00 64 1010.9
20260507191406 61 117 2.6 7.8 0.00 0.00 0.00 63 1010.7
20260507190906 62 99 2.6 8.7 0.00 0.00 0.00 63 1010.6
20260507185906 62 165 2.6 7.8 0.00 0.00 0.00 62 1010.6
20260507185406 62 84 1.7 10.4 0.00 0.00 0.00 62 1010.6
20260507184905 63 141 3.5 15.6 0.00 0.00 0.00 61 1010.5
20260507184405 63 60 1.7 7.8 0.00 0.00 0.00 61 1010.3
20260507183406 64 144 3.5 12.2 0.00 0.00 0.00 61 1010.1
20260507182905 64 102 4.3 13.0 0.00 0.00 0.00 61 1010.0
20260507182405 64 110 4.3 11.3 0.00 0.00 0.00 60 1010.0
20260507181905 65 122 4.3 11.3 0.00 0.00 0.00 59 1009.9
20260507181405 65 78 1.7 13.0 0.00 0.00 0.00 59 1009.7
20260507180905 65 220 2.6 10.4 0.00 0.00 0.00 58 1009.7
20260507180406 66 91 1.7 7.8 0.00 0.00 0.00 58 1009.6
20260507175905 66 148 3.5 11.3 0.00 0.00 0.00 57 1009.5
20260507175405 67 71 0.9 10.4 0.00 0.00 0.00 56 1009.6
20260507174405 67 70 5.2 11.3 0.00 0.00 0.00 55 1009.5
20260507173906 68 101 1.7 8.7 0.00 0.00 0.00 54 1009.5
20260507173406 68 156 1.7 10.4 0.00 0.00 0.00 54 1009.4
20260507172905 69 123 5.2 12.2 0.00 0.00 0.00 53 1009.4
20260507172405 69 69 0.9 10.4 0.00 0.00 0.00 52 1009.4
20260507171906 70 134 1.7 10.4 0.00 0.00 0.00 51 1009.3
20260507171405 70 100 6.1 11.3 0.00 0.00 0.00 50 1009.3
20260507170906 70 146 5.2 11.3 0.00 0.00 0.00 49 1009.3
20260507170405 70 102 1.7 11.3 0.00 0.00 0.00 48 1009.2
20260507165905 70 91 5.2 10.4 0.00 0.00 0.00 47 1009.2
20260507163905 70 89 2.6 8.7 0.00 0.00 0.00 48 1009.2
20260507163405 70 92 1.7 7.8 0.00 0.00 0.00 47 1009.2
20260507162905 71 96 2.6 13.0 0.00 0.00 0.00 45 1009.2
20260507162405 72 110 4.3 11.3 0.00 0.00 0.00 42 1009.2
20260507161905 72 93 1.7 8.7 0.00 0.00 0.00 43 1009.2
20260507161405 71 101 0.9 4.3 0.00 0.00 0.00 43 1009.1
20260507160905 71 126 4.3 8.7 0.00 0.00 0.00 42 1009.1
20260507160405 72 58 4.3 11.3 0.00 0.00 0.00 42 1009.3
20260507155905 72 155 5.2 11.3 0.00 0.00 0.00 41 1009.3
20260507155405 72 66 6.1 11.3 0.00 0.00 0.00 42 1009.3
20260507154906 72 144 3.5 11.3 0.00 0.00 0.00 40 1009.5
20260507154407 72 123 6.1 11.3 0.00 0.00 0.00 41 1009.5
20260507153905 72 126 0.9 5.2 0.00 0.00 0.00 42 1009.5
20260507153405 72 101 3.5 10.4 0.00 0.00 0.00 40 1009.6
20260507152405 72 75 0.9 10.4 0.00 0.00 0.00 41 1009.6
20260507150905 71 127 1.7 8.7 0.00 0.00 0.00 43 1009.6
20260507145405 72 112 1.7 10.4 0.00 0.00 0.00 43 1009.9
20260507144905 71 41 2.6 10.4 0.00 0.00 0.00 44 1009.9
20260507144405 70 96 2.6 10.4 0.00 0.00 0.00 44 1010.1
20260507143905 71 89 1.7 12.2 0.00 0.00 0.00 43 1010.2
20260507143405 71 81 3.5 10.4 0.00 0.00 0.00 44 1010.3
20260507142905 71 80 3.5 10.4 0.00 0.00 0.00 42 1010.3
20260507142404 72 80 1.7 11.3 0.00 0.00 0.00 42 1010.3
20260507141905 72 64 3.5 10.4 0.00 0.00 0.00 42 1010.4
20260507141405 71 55 0.9 10.4 0.00 0.00 0.00 44 1010.4
20260507140905 72 154 0.0 5.2 0.00 0.00 0.00 42 1010.4
20260507140406 72 111 0.9 6.1 0.00 0.00 0.00 44 1010.4
20260507135906 71 92 1.7 7.8 0.00 0.00 0.00 44 1010.4
20260507135405 71 78 0.9 4.3 0.00 0.00 0.00 42 1010.4
20260507134905 73 54 4.3 11.3 0.00 0.00 0.00 41 1010.4
20260507134405 73 38 1.7 8.7 0.00 0.00 0.00 42 1010.4
20260507133405 72 93 0.9 4.3 0.00 0.00 0.00 42 1010.4
20260507132905 72 118 2.6 12.2 0.00 0.00 0.00 42 1010.6
20260507132405 71 52 2.6 11.3 0.00 0.00 0.00 44 1010.5
20260507131906 71 114 4.3 7.8 0.00 0.00 0.00 44 1010.5
20260507130905 71 91 0.0 7.0 0.00 0.00 0.00 45 1010.6
20260507130405 70 108 5.2 10.4 0.00 0.00 0.00 46 1010.8
20260507125905 70 89 4.3 10.4 0.00 0.00 0.00 45 1010.8
20260507125404 71 83 2.6 12.2 0.00 0.00 0.00 44 1010.8
20260507124905 71 117 3.5 8.7 0.00 0.00 0.00 44 1010.9
20260507124405 70 87 1.7 5.2 0.00 0.00 0.00 46 1010.8
20260507123405 71 111 5.2 10.4 0.00 0.00 0.00 45 1010.9
20260507122405 69 11 5.2 10.4 0.00 0.00 0.00 46 1011.1
20260507121905 70 22 3.5 8.7 0.00 0.00 0.00 46 1011.2
20260507121405 70 28 1.7 12.2 0.00 0.00 0.00 44 1011.3
20260507120904 71 147 3.5 13.0 0.00 0.00 0.00 44 1011.4
20260507120405 71 160 2.6 10.4 0.00 0.00 0.00 44 1011.5
20260507115905 71 104 2.6 10.4 0.00 0.00 0.00 44 1011.4
20260507115405 70 0 1.7 7.8 0.00 0.00 0.00 43 1011.5
20260507114905 70 119 2.6 8.7 0.00 0.00 0.00 45 1011.6
20260507114404 70 231 0.9 7.0 0.00 0.00 0.00 45 1011.6
20260507113905 70 124 0.0 8.7 0.00 0.00 0.00 47 1011.7
20260507112905 68 63 0.9 6.1 0.00 0.00 0.00 48 1011.6
20260507112405 69 98 4.3 10.4 0.00 0.00 0.00 48 1011.6
20260507111905 69 328 0.0 4.3 0.00 0.00 0.00 50 1011.6